TimePST,TemperatureF,Dew PointF,Humidity,Sea Level PressureIn,VisibilityMPH,Wind Direction,Wind SpeedMPH,Gust SpeedMPH,PrecipitationIn,Events,Conditions,WindDirDegrees,DateUTC
12:04 AM,37.4,35.6,93,30.22,2.0,Calm,Calm,-,N/A,,Clear,0,2013-02-16 08:04:00
12:13 AM,37.4,35.6,93,30.22,7.0,Calm,Calm,-,N/A,,Clear,0,2013-02-16 08:13:00
12:53 AM,37.0,36.0,96,30.22,10.0,Calm,Calm,-,N/A,,Clear,0,2013-02-16 08:53:00
1:53 AM,35.1,34.0,96,30.22,4.0,Calm,Calm,-,N/A,,Clear,0,2013-02-16 09:53:00
2:53 AM,35.1,34.0,96,30.22,7.0,Calm,Calm,-,N/A,,Clear,0,2013-02-16 10:53:00
3:50 AM,35.6,33.8,93,30.22,6.0,Calm,Calm,-,N/A,,Mostly Cloudy,0,2013-02-16 11:50:00
3:53 AM,36.0,35.1,97,30.22,7.0,Calm,Calm,-,N/A,,Mostly Cloudy,0,2013-02-16 11:53:00
4:53 AM,39.0,37.9,96,30.22,10.0,Calm,Calm,-,N/A,,Overcast,0,2013-02-16 12:53:00
5:53 AM,39.9,37.9,93,30.24,9.0,SSW,3.5,-,N/A,,Overcast,210,2013-02-16 13:53:00
6:37 AM,39.2,37.4,93,30.24,10.0,Calm,Calm,-,N/A,,Mostly Cloudy,0,2013-02-16 14:37:00
6:53 AM,39.0,37.0,93,30.25,9.0,Calm,Calm,-,N/A,,Overcast,0,2013-02-16 14:53:00
7:29 AM,41.0,39.2,93,30.25,10.0,Calm,Calm,-,N/A,,Overcast,0,2013-02-16 15:29:00
7:53 AM,42.1,39.9,92,30.25,10.0,Calm,Calm,-,N/A,,Overcast,0,2013-02-16 15:53:00
8:22 AM,42.8,39.2,87,30.25,10.0,Calm,Calm,-,N/A,,Overcast,0,2013-02-16 16:22:00
8:35 AM,42.8,41.0,93,30.26,10.0,Calm,Calm,-,N/A,,Overcast,0,2013-02-16 16:35:00
8:42 AM,42.8,41.0,93,30.26,9.0,Calm,Calm,-,N/A,,Overcast,0,2013-02-16 16:42:00
8:53 AM,44.1,41.0,89,30.26,10.0,Calm,Calm,-,N/A,,Overcast,0,2013-02-16 16:53:00
9:53 AM,45.0,43.0,93,30.27,4.0,East,3.5,-,0.00,,Overcast,100,2013-02-16 17:53:00
10:15 AM,44.6,42.8,93,30.26,4.0,Calm,Calm,-,0.01,Rain,Light Rain,0,2013-02-16 18:15:00
10:31 AM,44.6,42.8,93,30.26,2.5,Calm,Calm,-,0.01,Rain,Light Rain,0,2013-02-16 18:31:00
10:37 AM,46.4,42.8,87,30.26,3.0,Calm,Calm,-,0.01,,Overcast,0,2013-02-16 18:37:00
10:51 AM,46.4,44.6,93,30.26,2.5,Calm,Calm,-,0.01,Rain,Light Rain,0,2013-02-16 18:51:00
10:53 AM,46.0,44.1,93,30.26,2.5,Calm,Calm,-,0.01,Rain,Light Rain,0,2013-02-16 18:53:00
11:53 AM,46.0,44.1,93,30.26,2.0,ESE,3.5,-,0.05,Rain,Rain,120,2013-02-16 19:53:00
12:04 PM,46.4,44.6,93,30.26,4.0,ESE,3.5,-,0.01,Rain,Light Rain,110,2013-02-16 20:04:00
12:14 PM,48.2,46.4,93,30.25,6.0,SE,4.6,-,0.01,,Overcast,130,2013-02-16 20:14:00
12:37 PM,46.4,42.8,87,30.25,1.8,Variable,4.6,-,0.08,Rain,Heavy Rain,0,2013-02-16 20:37:00
12:42 PM,48.2,41.0,76,30.25,3.0,Variable,4.6,-,0.08,Rain,Light Rain,0,2013-02-16 20:42:00
12:53 PM,46.9,44.1,90,30.25,10.0,Variable,3.5,-,0.08,Rain,Light Rain,0,2013-02-16 20:53:00
1:53 PM,48.9,41.0,74,30.23,10.0,NW,8.1,19.6,0.00,,Overcast,310,2013-02-16 21:53:00
2:53 PM,51.1,41.0,68,30.22,10.0,WNW,8.1,-,0.00,Rain,Light Rain,300,2013-02-16 22:53:00
3:53 PM,48.0,39.0,71,30.23,10.0,Calm,Calm,-,N/A,,Partly Cloudy,0,2013-02-16 23:53:00
4:53 PM,48.0,37.9,68,30.24,10.0,Variable,5.8,-,N/A,,Scattered Clouds,0,2013-02-17 00:53:00
5:53 PM,43.0,37.0,80,30.25,10.0,NE,4.6,-,N/A,,Partly Cloudy,40,2013-02-17 01:53:00
6:53 PM,43.0,36.0,76,30.25,10.0,NNW,4.6,-,N/A,,Clear,330,2013-02-17 02:53:00
7:53 PM,39.9,35.1,83,30.26,10.0,Calm,Calm,-,N/A,,Partly Cloudy,0,2013-02-17 03:53:00
8:53 PM,37.9,34.0,86,30.27,10.0,Calm,Calm,-,N/A,,Partly Cloudy,0,2013-02-17 04:53:00
9:53 PM,37.0,33.1,86,30.28,10.0,Calm,Calm,-,N/A,,Clear,0,2013-02-17 05:53:00
10:53 PM,35.1,33.1,92,30.28,10.0,Calm,Calm,-,0.00,,Partly Cloudy,0,2013-02-17 06:53:00
11:53 PM,34.0,33.1,96,30.28,10.0,WSW,3.5,-,N/A,,Mostly Cloudy,250,2013-02-17 07:53:00